Wetbulb
53.50 53.62 53.39 53.48 53.62 53.93 53.89 53.56 53.36 52.90 52.51 52.44 52.79 53.29 53.94 54.77 55.36 48.23 42.94 47.42 51.23 56.29 57.22 52.10 52.65 52.05 50.70 46.96 46.91 41.66 33.29 31.37 36.57 38.75 41.15 45.02 45.65 49.26 63.81 63.20 66.12 64.54 63.81 66.86 67.61
52.99 52.96 52.98 53.30 53.43 53.54 53.72 53.82 53.66 53.81 53.79 53.32 52.47 52.42 52.80 53.70 49.12 43.94 50.23 54.48 56.18 57.48 51.76 50.16 48.24 48.15 44.51 45.54 45.31 40.38 32.25 35.02 39.61 41.55 40.15 43.14 47.49 48.12 55.67 63.48 63.58 64.16 66.59 67.84 67.17
52.62 52.82 53.08 53.35 53.47 53.64 53.81 53.91 54.18 54.31 54.37 54.30 53.75 52.75 52.86 52.16 40.26 39.85 56.99 58.81 57.89 55.50 53.41 51.42 50.88 46.73 41.55 43.34 44.04 41.00 37.76 39.28 41.21 42.22 42.27 42.00 44.62 49.17 50.71 59.20 62.92 62.35 63.94 66.54 65.74
52.57 52.69 52.84 53.01 53.52 53.86 53.96 54.19 54.33 54.57 54.49 54.39 54.14 52.82 52.83 47.71 29.03 44.39 56.72 57.46 56.29 52.27 51.88 49.54 47.35 41.25 39.89 40.12 42.57 38.93 42.84 43.22 42.65 45.19 43.00 42.37 45.50 47.45 46.59 46.99 62.65 65.80 66.22 65.90 65.05
52.52 52.84 52.79 53.00 53.59 53.92 53.98 54.21 54.16 54.37 54.51 54.30 53.98 53.49 47.35 38.92 39.87 48.92 55.07 52.87 50.38 48.80 49.47 46.47 43.81 40.88 38.57 40.77 42.94 41.96 42.40 44.21 46.43 45.72 43.72 45.21 44.80 45.80 46.54 49.76 51.56 64.29 65.63 65.82 65.20
52.04 52.26 52.52 52.84 53.40 53.71 54.19 54.28 53.77 53.67 53.90 54.37 53.83 52.51 42.50 32.28 45.62 48.50 48.27 49.21 48.91 45.00 45.13 46.62 43.88 44.13 40.92 41.08 41.82 42.97 44.28 45.86 45.45 43.17 42.29 43.25 44.29 45.40 47.34 50.39 58.31 64.81 64.83 65.73 65.12
51.97 51.88 52.01 52.40 53.05 53.37 53.76 54.42 53.97 53.39 53.78 53.39 53.17 49.87 41.63 36.69 46.76 47.73 46.23 44.19 48.02 46.64 43.11 45.33 48.39 44.33 43.50 40.88 44.42 44.43 39.88 43.22 43.74 43.56 41.89 44.17 42.13 42.79 47.91 50.09 51.10 63.04 64.25 64.38 65.05
52.28 51.78 51.88 52.30 52.84 53.42 54.18 54.24 54.32 53.56 52.73 52.72 52.58 46.08 36.61 46.08 46.45 45.57 45.93 45.14 46.98 48.16 46.36 47.19 46.59 44.71 41.52 45.02 45.31 41.50 38.71 34.04 40.31 43.49 43.92 43.75 38.16 43.81 47.50 47.32 50.69 62.14 63.07 62.87 64.35
52.86 52.40 52.07 52.57 53.05 53.70 53.68 53.62 53.94 53.73 52.75 52.47 46.29 40.74 35.88 48.58 45.47 48.90 47.14 44.42 45.78 47.95 47.45 50.28 46.04 42.64 44.81 38.93 36.89 38.00 31.88 34.24 38.73 42.95 42.44 42.83 37.64 44.11 46.96 47.47 52.44 58.77 62.53 62.94 63.62
52.63 52.11 52.63 52.57 53.13 53.19 53.30 53.00 53.50 51.19 51.65 51.25 48.60 40.68 41.36 43.24 48.86 51.52 49.79 46.82 44.15 45.85 47.25 46.96 43.69 40.97 39.86 37.12 31.68 33.81 33.73 34.52 36.91 39.07 40.81 38.06 37.25 42.00 45.10 45.62 54.40 59.17 61.39 62.11 61.83
52.11 51.63 52.45 52.86 52.80 52.97 50.96 44.58 39.93 38.95 42.64 39.84 41.31 41.91 44.66 48.33 51.69 49.60 50.51 46.02 45.90 43.89 40.26 44.36 38.82 34.69 39.55 40.74 41.73 40.73 37.27 35.94 38.03 42.02 39.34 37.27 39.32 41.74 43.52 44.08 53.22 58.85 58.19 58.89 60.94
51.82 51.78 52.59 52.68 52.78 52.55 49.81 43.51 46.25 47.41 38.31 43.77 43.97 43.77 46.54 47.59 44.46 47.71 49.50 42.11 41.27 36.31 41.02 38.71 35.13 41.90 44.49 43.72 42.40 41.00 37.68 36.41 39.21 41.92 38.69 37.40 37.86 41.75 42.77 43.63 55.19 58.71 55.34 57.20 59.44
51.85 51.95 52.45 52.60 52.28 48.65 45.39 47.90 50.73 48.82 36.01 41.52 45.14 46.09 45.50 46.56 44.43 44.45 46.47 43.40 39.86 38.58 38.41 36.49 40.13 44.86 43.38 42.07 40.57 39.80 37.20 37.23 36.20 40.01 39.82 37.85 35.71 38.90 47.54 54.64 52.97 56.37 57.43 57.95 59.11
51.57 51.72 52.08 52.01 47.91 46.01 46.45 50.40 51.18 47.67 31.70 37.74 42.88 47.05 47.87 48.68 43.64 49.44 50.22 45.53 40.29 36.66 39.13 37.39 43.40 42.61 42.16 40.46 41.47 35.93 42.32 42.34 39.82 35.59 30.83 37.74 28.77 35.56 40.93 51.59 53.24 55.13 56.72 58.12 60.26
51.26 51.79 51.94 50.79 43.30 44.60 48.55 49.37 49.98 43.57 18.88 39.97 42.74 50.94 49.61 45.00 45.38 44.85 49.96 46.86 39.30 39.60 39.53 36.49 39.55 40.59 39.24 40.81 42.97 39.11 44.43 41.38 39.79 34.59 32.23 33.66 30.96 33.97 45.12 46.84 52.44 55.34 55.94 58.44 60.51
51.11 51.61 51.47 48.34 45.10 47.26 49.20 48.53 45.85 29.71 21.15 36.61 43.04 42.36 42.48 44.77 43.30 44.55 45.00 48.25 46.54 41.30 40.71 39.68 44.48 41.81 39.70 43.53 44.49 45.03 41.21 39.43 36.67 33.32 27.16 32.69 32.33 32.25 36.76 42.71 49.84 55.07 56.52 58.33 59.49
51.13 51.22 49.03 48.86 45.36 47.99 48.84 44.96 30.57 26.39 40.72 35.53 38.36 41.45 40.89 40.36 41.22 41.83 39.97 37.92 37.70 32.77 32.39 37.42 38.70 41.52 43.06 38.88 43.22 39.98 34.75 27.47 26.60 26.60 26.00 34.24 33.08 35.07 39.84 45.01 51.37 54.75 56.24 57.71 58.82
49.78 49.69 49.17 49.36 47.08 48.59 46.65 37.15 27.30 35.96 37.71 42.45 41.74 41.28 38.86 41.06 39.34 40.43 38.74 35.28 39.43 38.00 33.89 30.72 29.19 38.27 42.49 40.05 36.97 37.37 35.46 27.80 23.69 24.26 26.77 36.60 31.44 36.13 42.87 46.46 51.55 56.47 57.69 57.96 57.23
48.43 45.20 46.29 48.91 49.75 47.81 40.80 29.72 30.67 36.09 41.47 39.84 40.74 38.87 39.71 42.48 40.14 38.61 37.26 37.83 40.70 40.34 33.58 31.88 33.34 40.94 42.62 43.59 42.16 37.44 33.90 38.29 33.18 32.36 28.85 31.65 35.90 41.87 44.65 45.90 50.39 53.21 54.38 55.29 56.00
42.01 43.12 46.00 49.91 49.48 44.44 36.90 34.24 35.53 42.46 43.50 43.18 36.72 40.93 36.96 38.32 36.42 35.46 35.67 40.86 40.59 43.32 41.22 37.39 32.67 40.36 41.23 42.75 42.93 39.28 42.20 33.74 32.63 26.26 24.96 29.82 31.98 33.96 38.74 41.84 49.01 50.32 51.95 54.25 55.25
41.17 41.42 48.23 46.97 47.29 40.39 30.87 33.60 38.56 44.87 44.98 41.74 39.41 38.75 39.89 40.03 40.21 38.31 37.86 42.24 44.51 43.93 43.29 39.14 36.48 35.43 39.99 36.72 35.21 35.35 34.11 36.62 35.61 33.69 27.17 25.84 30.48 40.69 41.37 42.30 43.54 49.81 51.97 53.10 54.28
38.29 35.66 46.56 45.62 36.42 33.75 32.34 36.46 42.91 42.39 44.61 43.24 43.27 42.56 41.33 41.22 39.78 41.00 39.31 42.49 48.19 45.82 40.70 43.61 37.57 31.43 34.05 39.53 41.57 39.28 36.80 36.71 30.49 30.81 32.45 31.96 31.59 44.02 47.88 48.25 43.68 46.27 52.27 53.16 54.89
37.05 37.65 45.65 43.22 28.99 30.50 35.26 37.45 40.80 41.18 40.54 41.03 40.52 43.58 43.73 39.63 37.83 41.41 43.42 47.96 47.45 45.65 41.91 43.02 38.23 28.76 30.62 34.83 40.12 36.63 38.36 38.10 36.86 35.50 31.64 29.28 31.93 46.67 51.63 51.02 49.27 46.03 51.42 53.29 54.72
36.46 32.09 35.71 35.53 35.56 32.54 31.78 33.50 35.28 41.38 41.54 42.47 41.35 43.52 41.38 38.27 43.17 40.09 41.97 45.61 46.31 47.37 51.32 45.99 39.30 33.96 29.04 31.99 37.10 33.87 38.78 40.69 37.69 31.40 34.53 35.67 38.21 42.60 49.46 49.56 51.19 50.00 51.55 52.71 53.86
35.93 32.07 33.73 28.88 32.30 33.20 32.61 34.51 32.81 33.54 38.33 40.91 38.17 39.10 37.84 35.66 37.07 40.16 41.82 41.73 45.71 47.12 44.52 41.49 36.47 40.86 41.79 40.92 40.82 39.51 38.96 41.16 39.14 39.25 36.42 38.00 38.93 47.94 49.78 50.60 51.67 52.94 54.34 55.58 56.60
35.30 33.80 35.01 32.74 34.60 33.59 32.69 31.31 32.80 34.70 34.29 35.75 36.46 38.94 38.45 36.17 38.39 37.59 38.97 39.09 40.21 44.51 41.50 43.61 37.86 40.12 37.42 41.38 39.14 37.25 40.00 42.10 42.34 41.44 40.94 43.08 44.16 51.37 52.23 52.28 51.81 51.43 53.62 53.57 53.83
38.45 38.18 35.32 33.69 32.91 31.31 31.08 33.07 34.39 34.82 36.02 37.57 39.25 38.24 36.95 39.60 41.07 40.94 41.07 41.38 41.62 39.13 38.70 39.99 38.70 35.24 32.26 39.71 36.88 31.57 36.63 39.36 41.44 42.58 42.20 38.53 45.85 49.71 47.54 46.93 45.34 49.26 50.33 51.37 51.51
MSLP
1019.74 1019.32 1018.91 1018.49 1018.09 1017.63 1017.17 1016.82 1016.53 1016.25 1015.98 1015.76 1015.47 1015.27 1015.00 1014.62 1014.11 1013.87 1013.17 1011.60 1011.60 1011.18 1011.25 1011.13 1010.92 1010.56 1010.55 1010.55 1010.16 1010.28 1010.83 1009.88 1008.39 1007.79 1007.57 1005.77 1005.13 1004.18 1003.39 1003.63 1003.83 1003.88 1003.83 1003.60 1004.62
1019.65 1019.22 1018.71 1018.21 1017.84 1017.41 1016.97 1016.56 1016.21 1015.87 1015.58 1015.32 1015.15 1015.01 1014.77 1014.40 1013.91 1013.01 1011.11 1010.79 1010.95 1010.89 1011.15 1010.82 1010.85 1010.47 1010.53 1010.33 1009.98 1009.81 1009.57 1008.28 1007.39 1007.20 1006.79 1005.87 1004.80 1004.26 1003.85 1003.97 1004.13 1004.06 1003.71 1003.92 1004.34
1019.56 1019.00 1018.49 1018.01 1017.58 1017.13 1016.67 1016.27 1015.89 1015.55 1015.27 1015.10 1014.91 1014.75 1014.57 1014.24 1013.88 1011.53 1009.99 1009.94 1010.13 1010.08 1010.39 1010.53 1010.60 1010.64 1010.54 1010.25 1009.78 1009.11 1008.15 1007.61 1006.69 1006.57 1006.68 1006.17 1005.19 1004.21 1004.32 1004.26 1003.79 1003.67 1003.72 1004.23 1003.80
1019.29 1018.73 1018.22 1017.76 1017.27 1016.72 1016.22 1015.85 1015.55 1015.25 1015.03 1014.89 1014.68 1014.55 1014.39 1014.31 1013.29 1010.39 1010.07 1010.04 1009.99 1009.60 1010.04 1010.49 1010.65 1010.82 1010.41 1010.06 1009.39 1008.95 1007.77 1007.23 1006.74 1006.75 1006.74 1006.20 1005.46 1004.64 1004.35 1003.95 1003.55 1003.31 1002.95 1004.26 1004.06
1019.14 1018.53 1017.94 1017.45 1016.94 1016.37 1015.89 1015.45 1015.11 1014.91 1014.78 1014.65 1014.57 1014.42 1014.51 1014.36 1012.86 1010.35 1010.02 1010.29 1010.13 1010.01 1010.10 1010.66 1010.66 1010.50 1010.20 1009.71 1009.27 1008.47 1007.71 1007.11 1006.79 1006.85 1006.77 1006.36 1005.88 1004.96 1004.06 1003.49 1003.31 1003.01 1003.33 1003.17 1004.09
1018.92 1018.33 1017.72 1017.21 1016.67 1016.11 1015.51 1015.08 1014.81 1014.67 1014.56 1014.41 1014.44 1014.40 1014.72 1014.21 1010.89 1010.19 1010.17 1010.31 1010.35 1010.69 1010.64 1010.53 1010.44 1010.22 1010.14 1009.51 1008.88 1007.74 1007.41 1007.21 1006.77 1006.90 1006.91 1006.30 1005.56 1005.07 1003.45 1003.21 1003.07 1003.13 1003.21 1003.61 1004.64
1018.62 1018.02 1017.44 1016.91 1016.35 1015.78 1015.29 1014.91 1014.58 1014.40 1014.25 1014.15 1014.24 1014.46 1014.57 1012.61 1010.33 1010.08 1010.23 1010.07 1010.19 1010.37 1010.47 1010.17 1010.03 1009.91 1009.68 1009.28 1008.40 1007.73 1007.54 1007.01 1006.25 1006.47 1007.04 1006.02 1005.32 1003.74 1003.56 1003.49 1003.18 1003.55 1003.55 1004.65 1005.59
1018.33 1017.70 1017.16 1016.58 1016.03 1015.41 1014.94 1014.57 1014.19 1014.02 1013.89 1013.99 1014.11 1014.49 1013.53 1010.82 1010.33 1010.04 1009.71 1009.59 1009.54 1009.63 1009.88 1009.79 1009.90 1009.96 1009.87 1009.01 1008.20 1007.70 1007.49 1006.97 1005.59 1005.93 1006.26 1006.11 1003.81 1003.76 1003.29 1003.57 1003.50 1003.43 1003.96 1004.96 1005.89
1017.97 1017.33 1016.75 1016.21 1015.65 1015.00 1014.39 1014.08 1013.73 1013.75 1013.84 1013.87 1014.31 1014.42 1012.09 1010.24 1010.00 1008.77 1008.99 1009.24 1009.03 1008.92 1008.99 1009.01 1009.51 1009.55 1009.39 1009.47 1009.05 1007.78 1007.18 1006.57 1005.61 1004.85 1004.93 1005.05 1003.79 1003.15 1003.15 1003.48 1003.58 1003.62 1004.05 1005.09 1006.13
1017.65 1016.96 1016.30 1015.86 1015.31 1014.75 1014.19 1013.81 1013.60 1013.79 1013.84 1013.93 1014.00 1014.25 1011.33 1009.55 1008.69 1008.26 1008.27 1008.73 1008.85 1008.37 1008.23 1008.38 1008.85 1008.84 1009.10 1008.81 1008.08 1007.64 1007.12 1006.16 1005.60 1004.60 1004.36 1004.34 1004.09 1003.15 1003.18 1003.48 1003.49 1003.87 1004.15 1005.09 1006.16
1017.28 1016.61 1015.86 1015.31 1014.85 1014.37 1014.18 1013.94 1014.04 1013.70 1013.49 1012.73 1012.27 1011.76 1009.85 1008.97 1008.15 1008.01 1007.95 1008.51 1008.64 1008.31 1008.25 1008.06 1008.25 1007.85 1007.83 1008.09 1007.46 1007.12 1006.49 1005.81 1004.89 1003.93 1003.92 1004.20 1004.29 1003.66 1003.17 1003.62 1003.95 1004.15 1004.72 1005.27 1005.96
1016.93 1016.19 1015.37 1014.65 1014.26 1013.95 1014.11 1013.69 1012.44 1012.22 1012.21 1011.28 1011.01 1010.91 1009.49 1009.13 1008.35 1008.01 1007.95 1008.43 1008.83 1008.51 1008.38 1008.55 1007.93 1007.63 1007.52 1007.53 1007.33 1006.98 1006.43 1005.55 1004.64 1003.93 1003.84 1003.97 1003.89 1003.45 1003.19 1003.52 1003.90 1004.32 1004.97 1005.58 1006.12
1016.51 1015.72 1014.75 1014.13 1013.73 1013.66 1013.41 1012.42 1011.57 1012.05 1012.45 1010.62 1009.74 1009.20 1008.82 1008.98 1008.33 1008.19 1008.17 1008.21 1008.69 1008.65 1008.49 1008.73 1008.08 1007.41 1007.02 1006.79 1006.79 1006.38 1006.09 1005.38 1004.77 1004.16 1003.83 1003.86 1004.05 1003.69 1003.85 1003.97 1004.33 1004.51 1004.57 1005.36 1005.61
1016.17 1015.40 1014.43 1013.51 1013.33 1013.18 1012.59 1011.46 1011.65 1012.04 1012.16 1010.47 1009.05 1008.01 1008.29 1008.47 1008.25 1007.99 1008.07 1008.39 1008.33 1008.66 1008.78 1008.51 1007.43 1006.85 1006.22 1005.95 1006.07 1005.90 1005.47 1005.27 1004.89 1004.63 1004.66 1004.17 1004.76 1004.06 1004.05 1004.63 1004.98 1005.11 1005.13 1005.35 1005.99
1015.36 1014.80 1014.17 1013.73 1013.55 1012.96 1011.87 1011.60 1012.02 1012.41 1012.31 1010.14 1008.79 1007.49 1007.99 1008.33 1008.36 1008.13 1007.96 1008.03 1008.11 1008.16 1008.77 1007.35 1006.45 1006.03 1005.83 1005.45 1005.40 1005.28 1004.73 1004.91 1005.06 1005.11 1005.07 1005.01 1005.18 1004.31 1004.18 1004.80 1004.97 1005.10 1005.19 1005.15 1005.56
1014.36 1014.03 1013.58 1013.51 1013.61 1012.15 1011.77 1011.91 1012.31 1013.00 1011.51 1010.12 1008.95 1008.23 1008.16 1007.93 1008.38 1008.31 1008.04 1007.96 1007.88 1007.88 1007.55 1007.01 1006.24 1006.00 1005.19 1004.76 1004.74 1004.70 1004.75 1004.97 1005.39 1005.77 1006.02 1005.18 1004.95 1004.63 1003.85 1003.02 1004.05 1004.72 1004.83 1005.03 1005.27
1013.73 1013.01 1012.86 1012.64 1012.28 1011.59 1011.73 1012.41 1012.89 1012.87 1011.71 1010.65 1009.63 1008.80 1008.41 1008.26 1008.39 1008.39 1008.11 1007.92 1007.91 1007.88 1007.36 1006.45 1005.74 1005.05 1004.59 1004.44 1004.27 1004.45 1004.78 1005.75 1006.61 1006.72 1006.30 1005.31 1005.17 1003.84 1002.84 1002.59 1002.42 1003.62 1004.39 1004.72 1005.15
1013.51 1012.55 1012.29 1011.60 1011.53 1011.24 1011.85 1012.56 1013.09 1012.85 1011.77 1010.57 1009.88 1009.02 1008.58 1008.21 1008.35 1008.37 1008.16 1007.77 1007.30 1007.46 1007.14 1006.32 1005.26 1004.33 1003.93 1004.01 1004.00 1004.45 1004.95 1005.61 1006.31 1006.82 1006.54 1005.49 1004.67 1003.15 1002.11 1001.97 1002.13 1002.64 1003.21 1004.25 1005.09
1013.47 1012.54 1012.22 1010.92 1010.74 1011.11 1012.30 1012.98 1013.15 1012.35 1011.39 1010.67 1009.68 1009.21 1008.61 1008.50 1008.95 1008.37 1007.88 1007.11 1006.31 1006.27 1006.53 1005.80 1004.52 1003.37 1003.07 1003.26 1003.81 1004.53 1005.10 1005.46 1006.19 1006.81 1006.55 1005.80 1004.06 1002.95 1002.40 1002.38 1002.59 1002.95 1003.92 1004.60 1004.92
1014.93 1014.01 1012.03 1010.75 1010.57 1011.32 1012.60 1013.19 1012.55 1011.75 1011.12 1010.69 1010.19 1009.52 1009.32 1009.05 1009.21 1008.42 1007.25 1005.70 1005.23 1004.88 1005.09 1005.15 1004.33 1003.09 1003.23 1003.26 1003.46 1003.85 1004.61 1005.66 1006.42 1007.33 1007.42 1006.18 1005.05 1003.72 1002.96 1002.95 1003.39 1003.69 1003.85 1004.20 1004.70
1015.35 1014.25 1011.55 1011.01 1011.00 1012.24 1013.71 1013.57 1012.27 1011.32 1011.17 1011.01 1010.63 1010.13 1009.45 1009.11 1008.54 1008.05 1006.60 1005.24 1004.59 1004.30 1004.71 1004.77 1004.73 1003.82 1003.35 1003.30 1003.29 1004.05 1004.74 1005.68 1006.42 1007.53 1007.59 1007.36 1005.29 1004.17 1003.79 1002.89 1002.89 1002.97 1002.73 1003.02 1003.55
1016.99 1015.18 1012.18 1011.16 1012.70 1014.38 1014.44 1013.86 1012.53 1011.55 1011.15 1010.92 1010.61 1010.31 1009.73 1009.15 1008.21 1007.39 1006.34 1005.33 1004.31 1004.59 1004.65 1004.33 1004.60 1004.16 1003.36 1002.52 1002.56 1003.27 1004.25 1005.22 1006.49 1007.80 1007.74 1007.52 1005.37 1003.56 1003.38 1002.96 1002.35 1001.78 1002.05 1002.33 1002.63
1018.23 1016.58 1013.12 1012.78 1014.92 1015.81 1015.24 1014.14 1013.03 1011.95 1011.48 1011.11 1010.78 1010.44 1010.19 1009.53 1009.01 1007.61 1006.21 1004.82 1004.89 1004.53 1004.61 1004.46 1004.30 1004.40 1003.60 1003.13 1002.72 1003.04 1003.71 1004.47 1005.60 1006.71 1007.07 1006.99 1005.27 1003.36 1003.00 1002.94 1002.35 1001.54 1001.77 1002.19 1003.10
1018.67 1018.01 1016.29 1015.97 1016.54 1016.83 1016.52 1015.16 1013.97 1012.63 1012.04 1011.67 1011.29 1010.60 1010.42 1009.86 1009.09 1008.11 1007.13 1005.60 1005.48 1005.07 1004.18 1004.35 1005.05 1004.51 1003.74 1003.10 1002.94 1003.25 1003.49 1004.09 1005.10 1006.11 1006.41 1006.17 1005.33 1004.23 1004.03 1003.65 1002.93 1001.75 1002.12 1003.05 1003.69
1019.53 1020.08 1019.74 1018.56 1017.88 1017.91 1017.17 1015.98 1015.07 1014.21 1013.00 1012.08 1011.63 1011.41 1011.27 1010.46 1009.36 1008.39 1008.05 1007.19 1005.71 1005.62 1004.99 1005.21 1005.17 1005.08 1003.47 1003.00 1002.49 1002.76 1002.79 1003.57 1004.23 1004.75 1005.39 1005.52 1005.95 1005.74 1005.31 1004.99 1004.49 1004.09 1002.86 1003.81 1004.85
1020.96 1021.14 1020.37 1019.70 1018.94 1018.38 1017.60 1016.91 1016.05 1015.27 1014.57 1013.28 1012.74 1012.03 1011.53 1011.13 1010.53 1009.65 1009.15 1008.85 1007.62 1006.27 1006.25 1006.03 1005.49 1004.68 1003.89 1003.01 1002.65 1002.92 1002.68 1003.02 1003.91 1004.44 1005.05 1005.69 1005.98 1005.71 1005.70 1005.51 1005.80 1005.80 1004.91 1004.94 1006.11
1021.51 1021.39 1021.25 1020.39 1019.56 1018.91 1018.29 1017.73 1016.66 1016.26 1014.48 1013.77 1013.21 1012.34 1011.58 1010.97 1010.60 1009.69 1009.21 1008.54 1007.93 1008.00 1007.73 1007.09 1006.22 1005.63 1004.49 1003.21 1002.54 1002.59 1001.89 1002.35 1002.94 1003.20 1004.01 1004.96 1005.02 1006.01 1006.65 1006.97 1007.81 1007.64 1007.39 1006.61 1006.87
Wind_Speed
19 19 19 19 18 18 17 17 17 17 17 17 16 16 17 18 17 4 13 13 9 16 14 7 5 4 3 4 5 5 3 8 11 9 5 3 2 4 1 3 3 5 7 5 19
19 19 19 19 18 18 18 17 17 17 16 15 15 15 16 17 9 13 14 12 14 17 11 4 4 1 3 5 5 6 6 9 7 8 6 3 2 4 1 0 2 3 2 11 22
20 20 19 20 19 19 18 17 17 16 16 14 14 12 14 12 5 8 5 8 17 11 13 7 2 2 3 4 5 5 9 5 5 4 4 3 3 4 2 4 6 8 7 10 18
20 20 20 20 20 19 18 17 16 17 16 14 13 9 11 2 3 2 9 22 19 14 10 6 5 3 5 7 4 5 9 6 6 4 4 2 3 8 4 7 1 10 14 12 12
21 21 21 20 20 19 18 17 15 16 14 12 11 9 3 3 10 9 16 13 6 7 6 7 6 5 5 2 3 8 4 4 11 7 5 3 6 8 10 11 9 14 10 18 13
22 22 21 20 19 18 17 14 12 11 11 11 8 3 2 4 6 8 8 5 2 4 4 5 6 7 3 4 9 2 9 13 8 6 2 4 5 6 6 5 4 12 16 16 14
22 22 22 20 19 17 15 14 11 9 8 6 4 2 3 16 4 5 4 4 4 6 4 5 12 5 6 4 4 6 3 6 7 6 5 7 9 20 12 4 8 14 16 7 9
23 22 22 20 19 18 16 15 13 6 4 2 2 2 9 6 5 10 4 6 7 9 7 8 7 7 3 5 7 4 5 4 4 10 8 10 19 2 10 9 10 12 15 9 6
22 22 22 20 19 18 17 16 9 4 2 3 2 3 12 6 4 9 8 5 3 6 7 9 6 6 4 4 4 3 4 5 5 13 9 17 6 12 9 9 9 11 13 10 11
23 23 22 21 19 18 16 11 4 2 2 3 3 4 6 3 4 3 5 4 2 3 4 10 7 5 3 5 8 4 3 4 8 6 9 7 3 3 6 7 9 10 11 10 9
26 25 23 21 19 15 9 3 3 2 3 8 4 6 15 5 6 3 4 4 2 4 6 4 5 12 14 6 8 4 3 3 6 6 6 4 6 7 5 6 7 7 8 7 9
27 26 24 22 19 18 4 2 3 4 7 9 13 10 13 5 4 4 3 3 3 1 3 2 7 5 7 6 7 8 3 3 3 3 4 1 4 7 7 5 11 10 8 11 8
25 25 24 22 21 3 3 6 3 5 1 7 7 6 3 4 3 2 3 2 3 4 3 2 6 11 8 8 9 8 4 2 2 3 1 2 4 3 2 4 3 4 9 9 14
26 24 23 22 1 2 4 3 4 3 3 5 5 1 2 4 4 2 1 2 2 5 3 7 6 11 7 8 10 6 6 6 5 3 4 3 3 4 5 4 2 5 7 9 12
28 24 20 7 3 2 3 6 4 5 4 9 6 3 4 1 6 2 2 2 4 4 7 5 3 2 5 3 3 5 8 8 5 2 1 3 6 7 8 4 9 12 9 9 9
32 26 16 3 1 6 4 5 4 6 5 7 4 8 9 2 2 4 1 3 3 3 3 6 4 2 4 5 7 7 4 3 4 3 2 6 6 5 7 10 5 11 11 11 11
34 28 6 3 3 3 4 4 6 6 7 8 8 11 13 4 2 2 1 2 2 0 2 3 5 4 4 1 4 3 6 2 3 2 6 3 6 9 3 5 8 16 15 13 11
37 19 4 5 3 2 3 6 8 5 8 5 7 12 4 3 1 1 2 3 6 3 2 1 3 9 5 4 5 4 6 5 6 5 2 2 6 6 5 7 6 10 16 12 10
26 4 3 4 5 3 7 6 5 4 5 7 11 4 5 9 9 1 4 4 5 10 6 2 5 3 7 7 5 1 2 2 5 1 5 4 6 4 6 3 5 8 8 9 9
4 5 5 7 5 5 6 4 3 4 5 4 3 4 6 7 8 3 3 6 4 11 4 3 4 4 2 4 2 4 8 2 4 4 3 5 4 6 1 5 5 6 10 12 9
4 5 5 7 4 7 3 5 5 4 1 2 4 7 7 8 10 4 6 6 3 1 8 3 2 5 7 4 5 3 1 6 6 3 4 1 6 1 8 8 11 14 16 16 16
4 3 5 6 6 2 3 4 7 3 1 4 3 5 5 10 7 6 5 4 3 2 6 5 3 3 7 5 7 6 7 5 6 2 2 4 8 1 6 8 11 12 16 15 16
4 4 4 6 4 4 7 7 4 3 3 3 4 4 6 5 6 10 6 6 10 5 5 4 2 2 3 5 4 5 4 6 6 4 4 5 8 3 11 11 12 12 10 12 12
3 6 7 6 2 3 5 5 8 9 4 3 5 4 7 5 4 10 10 8 18 8 11 5 4 3 6 6 5 1 5 4 6 4 4 6 7 11 13 14 14 6 8 11 12
5 2 0 6 5 7 3 3 6 8 6 3 4 3 5 6 11 2 6 14 8 7 7 5 5 5 4 8 10 10 8 9 9 6 7 5 3 5 7 7 6 5 17 17 16
3 4 5 5 6 6 6 6 6 9 4 7 6 9 7 5 4 12 11 6 7 6 8 5 3 2 2 4 14 14 9 11 7 4 5 7 4 2 6 9 11 9 15 17 15
3 2 2 5 6 4 2 7 9 9 8 6 7 5 5 6 10 18 14 15 16 7 5 4 3 5 3 4 6 3 8 13 7 5 8 8 6 9 8 12 12 10 10 16 17
Wind_Direction
339 338 335 332 327 322 318 318 318 314 314 315 314 321 320 321 318 279 266 229 208 258 276 279 283 242 194 224 205 137 153 210 209 195 163 56 113 263 240 128 9 207 169 226 157
339 334 333 328 326 322 318 314 310 309 303 303 313 316 319 317 304 270 247 255 250 257 260 227 251 310 220 213 202 177 192 215 187 162 117 26 348 323 65 10 27 331 275 141 155
338 334 328 326 325 319 314 310 310 308 303 307 308 311 318 327 326 247 187 40 356 346 226 240 266 299 208 196 218 214 228 184 216 141 103 177 289 301 9 220 186 207 221 185 156
336 334 330 328 325 320 315 308 307 304 306 304 309 308 317 311 299 280 313 336 341 336 188 215 210 216 189 209 218 251 221 228 251 115 98 175 327 305 243 232 148 233 179 190 175
336 333 331 329 326 322 317 312 304 303 303 299 296 314 347 327 253 280 310 339 343 9 189 222 195 174 188 205 211 242 268 256 232 265 228 204 214 240 267 275 284 226 222 197 191
337 335 332 331 327 325 321 316 310 302 301 294 279 337 111 268 241 264 290 305 42 33 302 259 229 206 256 244 200 224 186 250 250 233 221 190 230 195 252 211 260 182 204 210 170
337 336 333 331 328 327 324 319 313 303 293 305 257 171 219 248 228 270 312 242 231 248 263 258 218 218 194 283 244 253 274 264 227 193 187 160 269 229 238 260 261 188 211 145 103
336 337 335 332 329 324 318 314 306 287 291 272 229 136 251 257 260 278 241 278 222 231 220 248 269 235 205 318 329 224 160 192 244 166 181 166 248 135 205 192 226 214 210 147 117
336 335 333 331 329 322 319 317 293 237 187 128 90 159 266 295 226 250 175 242 250 212 219 230 155 182 247 173 325 288 188 186 300 175 157 185 242 176 197 185 218 215 203 178 140
336 335 329 330 328 321 318 320 140 91 158 169 247 267 257 292 251 256 183 162 292 271 263 200 205 171 231 156 202 178 168 170 195 209 201 173 255 288 153 175 211 180 194 178 159
336 336 330 327 325 317 334 29 7 310 188 209 216 255 283 308 251 356 115 150 294 45 169 209 196 207 213 231 276 6 129 165 180 230 184 163 167 223 242 144 197 197 164 159 156
334 334 329 323 321 317 149 198 215 239 313 227 247 245 271 250 282 9 100 83 35 300 134 173 226 220 212 209 238 275 296 267 262 271 169 104 188 216 198 167 176 189 183 156 137
332 331 327 323 319 125 189 226 118 109 282 289 216 236 298 179 287 310 110 200 149 280 85 305 279 234 231 199 217 238 205 264 220 312 227 98 335 171 66 74 141 196 196 166 165
333 332 327 325 91 270 258 187 133 106 25 294 331 267 141 338 262 145 303 207 189 209 116 250 210 203 213 215 197 229 207 239 288 57 159 105 233 208 159 93 98 173 180 187 160
332 333 326 307 302 305 270 114 114 58 20 312 289 267 145 109 300 323 255 26 233 212 160 257 172 89 247 237 163 219 182 197 210 161 98 327 96 269 125 172 190 205 202 196 184
331 333 332 93 175 238 52 92 53 43 305 329 298 314 321 240 210 301 308 197 182 287 223 245 298 268 209 217 197 244 211 65 61 112 66 218 115 283 191 193 155 199 210 196 190
330 330 307 176 247 129 135 61 29 66 303 296 320 325 323 273 178 271 172 318 286 295 350 291 205 215 192 251 195 143 95 60 54 51 213 227 99 240 252 219 179 178 202 201 201
329 325 188 226 158 156 74 52 52 266 281 303 297 319 317 317 126 280 283 270 230 177 273 222 317 170 177 184 176 176 138 148 160 178 187 276 208 243 222 190 213 191 189 194 189
328 334 328 266 179 114 72 45 214 285 271 302 318 317 339 28 341 281 229 252 228 175 187 226 268 152 168 149 150 176 132 195 105 21 71 239 306 283 151 105 148 171 155 201 202
332 339 286 307 144 68 71 249 230 226 300 297 312 352 319 25 338 338 261 216 238 191 157 276 310 152 113 71 254 105 164 114 8 121 155 297 291 225 175 186 149 170 202 199 192
20 17 276 348 61 47 112 252 276 265 5 301 311 293 309 345 318 264 267 287 247 183 156 211 111 323 104 201 162 98 285 64 104 76 136 75 270 17 283 230 194 201 202 193 188
351 356 315 7 48 30 333 287 275 278 304 289 269 250 299 314 307 263 256 275 328 116 169 226 134 284 207 213 165 145 168 120 111 205 171 159 272 203 333 286 229 221 196 201 190
343 281 323 58 64 332 312 301 284 296 279 306 289 0 322 295 311 307 298 317 10 245 180 217 312 0 59 36 14 103 161 116 106 94 191 135 263 322 4 349 312 232 183 191 158
21 348 326 37 41 40 333 291 331 326 283 280 282 311 321 301 220 289 312 318 334 358 31 122 127 230 185 207 139 287 162 174 129 124 177 220 300 350 351 349 347 91 107 130 123
26 339 143 312 340 331 261 307 334 357 314 296 300 5 316 300 307 331 333 328 315 1 23 59 183 206 190 248 150 249 183 166 195 192 161 206 209 321 3 10 22 45 102 109 111
42 12 357 296 297 314 349 354 342 338 282 325 328 309 288 259 293 310 318 322 277 334 14 356 311 343 213 121 179 206 204 188 206 164 100 149 178 81 75 62 51 53 110 105 108
330 343 104 298 326 360 351 319 324 339 292 309 289 304 296 264 285 274 256 257 251 291 346 297 342 25 299 326 123 163 191 180 193 178 137 197 161 123 87 68 32 27 77 98 95